This is the latest recevied weather packets stored in our database for station/object DG1ROH. If no packets are shown the sender has not sent any weather packets the latest 10 day(s).
| Time | Temp. | Humidity | Pressure | Rain* | Wind** | Luminosity | Snow |
|---|---|---|---|---|---|---|---|
| 1777374479 | 14.44° C | 32% | 1025.6 hPa | 0 mm | - | 733 W/m² | - |
| 1777374359 | 14.44° C | 35% | 1025.6 hPa | 0 mm | - | 733 W/m² | - |
| 1777374239 | 13.89° C | 34% | 1025.7 hPa | 0 mm | - | 737 W/m² | - |
| 1777374119 | 13.89° C | 33% | 1025.6 hPa | 0 mm | - | 735 W/m² | - |
| 1777373998 | 13.89° C | 32% | 1025.7 hPa | 0 mm | - | 738 W/m² | - |
| 1777373877 | 13.89° C | 32% | 1025.7 hPa | 0 mm | - | 742 W/m² | - |
| 1777373757 | 13.89° C | 37% | 1025.7 hPa | 0 mm | - | 740 W/m² | - |
| 1777373637 | 13.89° C | 32% | 1025.7 hPa | 0 mm | - | 740 W/m² | - |
| 1777373515 | 13.89° C | 33% | 1025.8 hPa | 0 mm | - | 740 W/m² | - |
| 1777373395 | 13.89° C | 32% | 1025.8 hPa | 0 mm | - | 738 W/m² | - |
| 1777373275 | 13.89° C | 33% | 1025.7 hPa | 0 mm | - | 737 W/m² | - |
| 1777373153 | 13.89° C | 33% | 1025.8 hPa | 0 mm | - | 737 W/m² | - |
| 1777373033 | 13.89° C | 34% | 1025.8 hPa | 0 mm | - | 737 W/m² | - |
| 1777372913 | 13.89° C | 34% | 1025.8 hPa | 0 mm | - | 733 W/m² | - |
| 1777372793 | 13.89° C | 35% | 1025.8 hPa | 0 mm | - | 733 W/m² | - |
| 1777372673 | 13.89° C | 34% | 1025.8 hPa | 0 mm | - | 731 W/m² | - |
| 1777372553 | 13.89° C | 34% | 1025.9 hPa | 0 mm | - | 729 W/m² | - |
| 1777372433 | 13.89° C | 39% | 1025.9 hPa | 0 mm | - | 731 W/m² | - |
| 1777372313 | 13.33° C | 32% | 1025.8 hPa | 0 mm | - | 728 W/m² | - |
| 1777372193 | 13.33° C | 32% | 1026 hPa | 0 mm | - | 728 W/m² | - |
| 1777372074 | 13.89° C | 34% | 1026 hPa | 0 mm | - | 729 W/m² | - |
| 1777371953 | 13.33° C | 34% | 1026 hPa | 0 mm | - | 728 W/m² | - |
| 1777371827 | 13.89° C | 34% | 1026 hPa | 0 mm | - | 728 W/m² | - |
| 1777371707 | 13.89° C | 38% | 1026 hPa | 0 mm | - | 722 W/m² | - |
| 1777371590 | 13.89° C | 35% | 1025.9 hPa | 0 mm | - | 722 W/m² | - |
* Rain latest hour (hover to see other rain measurements)
** Current wind speed in m/s (hover to see current wind gust speed)